[[{"header":{"parameterUnit":"m.s-1","parameterCategory":1,"la1":30.2991,"la2":30.254,"lo1":-89.0895,"lo2":-89.0444,"dy":0.0017,"dx":0.0017,"nx":28,"ny":28,"refTime":"2023-08-01T09:00:00:Z","depth":0,"parameterNumber":2,"parameterNumberName":"U-component_of_WINDS"},"data":[0,0,0,0,0,0,0,0,0,0,0,0,0,0,0,0,0,0,0,0,0,0,0,0,0,0,0,0,0,0,0,0,0,0,0,0,0,0,0,0,0,0,0,0,0,0,0,0,0,0,0,0,0,0,0,0,0,0,-0.7061,-0.706,0,-0.6978,-0.6977,-0.6976,-0.695,-0.6951,-0.6951,-0.6951,-0.6863,-0.6861,-0.6858,0,0,0,0,0,0,0,0,0,0,0,0,0,-0.7195,-0.7193,-0.7061,-0.706,-0.7059,-0.6978,-0.6977,-0.6975,-0.695,-0.6951,-0.6951,-0.6952,-0.6864,-0.6861,-0.6858,0,0,0,0,0,0,0,0,0,0,0,0,0,-0.7127,-0.7192,-0.7061,-0.7036,-0.7033,-0.6978,-0.6976,-0.6975,-0.695,-0.6951,-0.6951,-0.6952,-0.6865,-0.6861,-0.6857,-0.682,0,0,-0.6845,-0.6843,0,0,0,0,0,0,0,0,-0.7131,-0.7122,-0.7041,-0.7038,-0.7034,-0.6975,-0.6992,-0.6923,-0.695,-0.6981,-0.6951,-0.6952,-0.69,-0.6893,-0.6876,-0.6816,-0.6812,-0.6845,-0.6842,-0.684,-0.6839,0,0,0,0,0,0,0,-0.7136,-0.7125,-0.7028,-0.704,-0.7036,-0.7029,-0.702,-0.6979,-0.6938,-0.6979,-0.6977,-0.6967,-0.6898,-0.688,-0.6874,-0.681,-0.6845,-0.6841,-0.6838,-0.6837,-0.6716,-0.6715,0,0,0,0,0,0,-0.7145,-0.713,-0.703,-0.7025,-0.7085,-0.7026,-0.7016,-0.6993,-0.6938,-0.6931,-0.6967,-0.6967,-0.6887,-0.6878,-0.687,-0.6823,-0.684,-0.6836,-0.6834,-0.6717,-0.6716,-0.6715,0,0,0,0,0,0,-0.7148,-0.7136,-0.7034,-0.7077,-0.7063,-0.7023,-0.6998,-0.6991,-0.6973,-0.693,-0.6922,-0.6956,-0.6887,-0.6876,-0.6833,-0.682,-0.6835,-0.6831,-0.6717,-0.6716,-0.6715,-0.6728,0,0,0,0,0,0,-0.7152,-0.7138,-0.7123,-0.7077,-0.7061,-0.6998,-0.6997,-0.6989,-0.6966,-0.6965,-0.6917,-0.691,-0.6886,-0.6839,-0.6829,-0.6814,-0.6828,-0.6718,-0.6717,-0.6716,-0.6729,-0.6727,-0.6727,0,0,0,0,0,-0.7157,-0.7129,-0.7123,-0.7111,-0.7042,-0.6997,-0.6988,-0.6963,-0.6966,-0.695,-0.6923,-0.6911,-0.6823,-0.6835,-0.6823,-0.6807,-0.6719,-0.6717,-0.6716,-0.6729,-0.6728,-0.6727,0,0,0,0,0,0,-0.7174,-0.7123,-0.7115,-0.7071,-0.7039,-0.6993,-0.6973,-0.6962,-0.6927,-0.6927,-0.6896,-0.6886,-0.6845,-0.6822,-0.6836,-0.6768,-0.6771,-0.6766,-0.6785,-0.6783,-0.6782,-0.6788,-0.6824,0,0,0,0,0,-0.7173,-0.7141,-0.7098,-0.7064,-0.7048,-0.7014,-0.6993,-0.6977,-0.6941,-0.6927,-0.6896,-0.6862,-0.6826,-0.6803,-0.6768,-0.6725,-0.6715,-0.6709,-0.6708,-0.6707,-0.6704,-0.668,-0.6677,-0.6709,-0.6709,-0.6709,0,0,-0.717,-0.7138,-0.712,-0.7067,-0.704,-0.7007,-0.7002,-0.6968,-0.6943,-0.6921,-0.6879,-0.6855,-0.6815,-0.6772,-0.6751,-0.6751,-0.6693,-0.6705,-0.6705,-0.6701,-0.6678,-0.6675,-0.6672,-0.6708,-0.6708,-0.6708,0,0,-0.7148,-0.7121,-0.709,-0.7063,-0.7023,-0.7,-0.6993,-0.6949,-0.6933,-0.689,-0.6873,-0.6843,-0.6783,-0.6755,-0.6733,-0.6702,-0.6691,-0.6692,-0.6686,-0.6663,-0.666,-0.6658,-0.6647,-0.6644,-0.6688,-0.6688,-0.6688,0,-0.7149,-0.71,-0.7075,-0.7042,-0.7019,-0.6999,-0.6968,-0.6943,-0.6893,-0.6877,-0.6878,-0.6803,-0.6774,-0.6724,-0.6717,-0.67,-0.669,-0.6696,-0.6663,-0.666,-0.6658,-0.6647,-0.6643,-0.6689,-0.6689,-0.6689,-0.6689,0,-0.7104,-0.707,-0.705,-0.7003,-0.6978,-0.6946,-0.6916,-0.6893,-0.6879,-0.6856,-0.6813,-0.6779,-0.6737,-0.6724,-0.6709,-0.6672,-0.6674,-0.6669,-0.6671,-0.6656,-0.6645,-0.6641,-0.6689,-0.6689,-0.6689,-0.6689,0,0,-0.7089,-0.703,-0.7023,-0.7002,-0.6957,-0.693,-0.6897,-0.6857,-0.6839,-0.6805,-0.6777,-0.6727,-0.6723,-0.6698,-0.668,-0.666,-0.6639,-0.6658,-0.6657,-0.6656,-0.6596,-0.66,-0.6596,-0.6631,-0.663,-0.6629,-0.66,0,-0.7061,-0.7002,-0.6979,-0.6931,-0.69,-0.6882,-0.6853,-0.6822,-0.68,-0.677,-0.6745,-0.6711,-0.6708,-0.6693,-0.6673,-0.6646,-0.6626,-0.6647,-0.6604,-0.6602,-0.6614,-0.659,-0.6593,-0.6567,-0.6596,-0.6595,-0.6594,0,-0.7021,-0.6988,-0.6938,-0.6897,-0.6883,-0.6858,-0.682,-0.6792,-0.6756,-0.6742,-0.6715,-0.6698,-0.6663,-0.6668,-0.6618,-0.6633,-0.6614,-0.6598,-0.6597,-0.6591,-0.6597,-0.6584,-0.6558,-0.6555,-0.6588,-0.6588,-0.6589,0,-0.7016,-0.6959,-0.6922,-0.6904,-0.6856,-0.6839,-0.6818,-0.6783,-0.6761,-0.6727,-0.6713,-0.6675,-0.6655,-0.6626,-0.66,-0.6606,-0.6554,-0.6556,-0.654,-0.6541,-0.653,-0.6531,-0.6501,-0.6518,-0.6518,-0.6518,-0.6518,0,-0.6987,-0.6957,-0.6919,-0.6896,-0.6861,-0.6835,-0.6801,-0.6779,-0.6749,-0.6721,-0.6702,-0.6676,-0.6643,-0.6613,-0.6593,-0.6555,-0.6546,-0.6533,-0.6528,-0.6535,-0.6536,-0.6521,-0.6523,-0.6517,-0.6517,-0.6517,-0.6517,0,-0.6975,-0.6948,-0.6906,-0.6865,-0.6854,-0.683,-0.6794,-0.6771,-0.6749,-0.6714,-0.6704,-0.6669,-0.6633,-0.6604,-0.6556,-0.6543,-0.6503,-0.6498,-0.6516,-0.6513,-0.6499,-0.6501,-0.6458,-0.6451,-0.6474,-0.6473,-0.6473,0,-0.6958,-0.6935,-0.6891,-0.6872,-0.6851,-0.682,-0.6798,-0.6771,-0.6748,-0.6707,-0.6689,-0.6652,-0.662,-0.6563,-0.6533,-0.6497,-0.649,-0.6478,-0.6484,-0.6492,-0.649,-0.6492,-0.6489,-0.6477,-0.6476,-0.6476,-0.6476,0,-0.6932,-0.692,-0.6889,-0.6854,-0.6828,-0.6799,-0.6769,-0.6754,-0.6722,-0.6698,-0.6661,-0.6637,-0.6589,-0.6552,-0.6513,-0.6491,-0.6478,-0.6475,-0.6469,-0.6476,-0.6487,-0.6481,-0.6514,-0.6476,-0.6476,-0.6476,-0.6476,-0.6476,-0.6917,-0.6896,-0.6862,-0.6828,-0.6803,-0.6776,-0.6753,-0.6729,-0.6698,-0.6657,-0.6643,-0.6606,-0.6572,-0.6518,-0.6496,-0.6466,-0.6465,-0.6457,-0.6455,-0.6453,-0.6454,-0.6492,-0.6458,-0.6458,-0.6458,-0.6458,-0.6458,0,-0.689,-0.6868,-0.6837,-0.6797,-0.677,-0.6762,-0.6729,-0.6707,-0.6675,-0.6644,-0.6614,-0.6572,-0.6537,-0.6505,-0.6468,-0.645,-0.6443,-0.6441,-0.6442,-0.6437,-0.6457,-0.6465,-0.6447,-0.6447,-0.6447,-0.6447,-0.6447,-0.6447,-0.6872,-0.6836,-0.6821,-0.6772,-0.6749,-0.6713,-0.6695,-0.667,-0.6646,-0.66,-0.6571,-0.6551,-0.652,-0.6481,-0.6448,-0.6439,-0.6427,-0.6426,-0.6416,-0.6434,-0.6436,-0.6437,-0.6445,-0.6423,-0.6423,-0.6399,-0.6399,-0.6399]},{"header":{"parameterUnit":"m.s-1","parameterCategory":1,"la1":30.2991,"la2":30.254,"lo1":-89.0895,"lo2":-89.0444,"dy":0.0017,"dx":0.0017,"nx":28,"ny":28,"refTime":"2023-08-01T09:00:00:Z","depth":0,"parameterNumber":3,"parameterNumberName":"V-component_of_WINDS"},"data":[0,0,0,0,0,0,0,0,0,0,0,0,0,0,0,0,0,0,0,0,0,0,0,0,0,0,0,0,0,0,0,0,0,0,0,0,0,0,0,0,0,0,0,0,0,0,0,0,0,0,0,0,0,0,0,0,0,0,0.4715,0.4715,0,0.4697,0.4696,0.4696,0.467,0.4669,0.4669,0.4668,0.4648,0.4647,0.4647,0,0,0,0,0,0,0,0,0,0,0,0,0,0.4724,0.4724,0.4715,0.4715,0.4715,0.4697,0.4696,0.4696,0.467,0.4669,0.4669,0.4668,0.4648,0.4647,0.4647,0,0,0,0,0,0,0,0,0,0,0,0,0,0.4714,0.4724,0.4715,0.47,0.4698,0.4697,0.4696,0.4696,0.467,0.4669,0.4669,0.4668,0.4648,0.4647,0.4647,0.4659,0,0,0.4647,0.4646,0,0,0,0,0,0,0,0,0.4715,0.4714,0.4702,0.4701,0.4699,0.4685,0.4692,0.4684,0.467,0.4681,0.4668,0.4668,0.466,0.4659,0.4657,0.4658,0.4657,0.4647,0.4646,0.4646,0.4646,0,0,0,0,0,0,0,0.4716,0.4715,0.4708,0.4702,0.47,0.4692,0.469,0.469,0.4674,0.468,0.4678,0.4676,0.4659,0.4657,0.4656,0.4657,0.4647,0.4646,0.4646,0.4646,0.4664,0.4664,0,0,0,0,0,0,0.4719,0.4715,0.4708,0.4707,0.4705,0.4692,0.469,0.469,0.4674,0.4671,0.4676,0.4675,0.4658,0.4657,0.4655,0.4666,0.4646,0.4646,0.4646,0.4663,0.4664,0.4664,0,0,0,0,0,0,0.4719,0.4719,0.4709,0.4711,0.4709,0.4693,0.4693,0.469,0.4688,0.4672,0.4669,0.4677,0.4657,0.4656,0.4658,0.4665,0.4646,0.4646,0.4662,0.4663,0.4664,0.4689,0,0,0,0,0,0,0.472,0.4719,0.4725,0.4711,0.4709,0.4713,0.4694,0.469,0.4688,0.4685,0.4672,0.4669,0.4657,0.4658,0.4658,0.4664,0.4646,0.4662,0.4663,0.4664,0.4688,0.4691,0.4694,0,0,0,0,0,0.472,0.4733,0.4725,0.4724,0.4716,0.4714,0.4712,0.4698,0.4689,0.4693,0.4682,0.467,0.4665,0.4659,0.4658,0.4665,0.4661,0.4662,0.4664,0.4686,0.469,0.4693,0,0,0,0,0,0,0.4747,0.4731,0.4722,0.4731,0.4724,0.4709,0.4715,0.4703,0.4699,0.4696,0.4678,0.4676,0.4679,0.4672,0.4666,0.4674,0.4661,0.4662,0.4678,0.4682,0.4685,0.4686,0.4646,0,0,0,0,0,0.4755,0.4755,0.474,0.4749,0.4746,0.4731,0.473,0.4719,0.4711,0.4708,0.4697,0.4689,0.4685,0.4683,0.4679,0.4687,0.4682,0.469,0.4693,0.4696,0.4697,0.4697,0.47,0.4669,0.4669,0.4669,0,0,0.4769,0.476,0.4762,0.4754,0.4748,0.4747,0.4729,0.473,0.4729,0.4708,0.4709,0.4701,0.469,0.4694,0.4695,0.4688,0.4704,0.4698,0.47,0.4699,0.4699,0.4702,0.4704,0.467,0.467,0.4669,0,0,0.4795,0.4789,0.4795,0.4788,0.4778,0.4767,0.4769,0.4755,0.4749,0.475,0.4733,0.4731,0.4726,0.4718,0.4713,0.4733,0.472,0.4732,0.4747,0.4748,0.475,0.4752,0.4757,0.4759,0.4733,0.4733,0.4733,0,0.4814,0.4813,0.4799,0.48,0.4796,0.4777,0.4781,0.4775,0.4764,0.4761,0.4754,0.4745,0.4737,0.4737,0.4741,0.4739,0.4738,0.4733,0.4751,0.4753,0.4755,0.4759,0.4761,0.4735,0.4735,0.4734,0.4734,0,0.4836,0.4836,0.4841,0.483,0.4827,0.483,0.4814,0.4812,0.4802,0.4791,0.4791,0.478,0.4772,0.4771,0.4761,0.4769,0.4765,0.4755,0.4741,0.4759,0.4763,0.4765,0.4737,0.4736,0.4736,0.4736,0,0,0.4879,0.4859,0.4861,0.4854,0.4841,0.484,0.484,0.4833,0.483,0.4823,0.4822,0.4816,0.4806,0.4801,0.4789,0.479,0.4803,0.4779,0.4778,0.4782,0.4808,0.4815,0.4818,0.4795,0.4795,0.4795,0.4809,0,0.49,0.4901,0.4887,0.4891,0.4889,0.4869,0.487,0.486,0.485,0.4846,0.4834,0.483,0.4818,0.4814,0.4814,0.4802,0.4808,0.4801,0.4791,0.4791,0.4793,0.482,0.4827,0.4841,0.481,0.481,0.4811,0,0.4926,0.4919,0.4923,0.4906,0.4905,0.4906,0.4896,0.4893,0.4881,0.4873,0.4866,0.4853,0.485,0.4838,0.4833,0.4829,0.4824,0.4817,0.4817,0.4815,0.4801,0.4816,0.4845,0.4846,0.4813,0.4813,0.4813,0,0.4953,0.4945,0.4946,0.4941,0.4923,0.4924,0.4916,0.4904,0.4899,0.489,0.4887,0.4878,0.4872,0.4865,0.4849,0.4842,0.4845,0.4832,0.4837,0.4837,0.4837,0.4837,0.4864,0.4837,0.4837,0.4837,0.4837,0,0.4978,0.498,0.4958,0.4958,0.4959,0.4942,0.4943,0.4934,0.4922,0.4919,0.4902,0.4899,0.4879,0.4873,0.486,0.4856,0.4855,0.4847,0.4843,0.4848,0.4848,0.4843,0.4841,0.4838,0.4837,0.4837,0.4837,0,0.5008,0.4994,0.4993,0.4975,0.4971,0.4972,0.4957,0.4955,0.4944,0.4939,0.4937,0.4919,0.491,0.4894,0.4881,0.4872,0.4871,0.4866,0.4875,0.4873,0.4878,0.4877,0.4901,0.4902,0.4876,0.4876,0.4877,0,0.5024,0.5025,0.5008,0.5004,0.4997,0.4993,0.4987,0.497,0.4965,0.495,0.495,0.4941,0.4932,0.492,0.4904,0.4894,0.4887,0.4896,0.4885,0.4889,0.4885,0.4884,0.4883,0.4898,0.4898,0.4899,0.4899,0,0.5053,0.5045,0.5039,0.5029,0.5023,0.5015,0.5006,0.5004,0.4984,0.4979,0.497,0.4964,0.495,0.494,0.4927,0.4918,0.4904,0.4902,0.4903,0.4907,0.4911,0.4907,0.488,0.4902,0.4902,0.4901,0.4901,0.4901,0.5075,0.5074,0.5061,0.5054,0.5045,0.5036,0.5033,0.5021,0.5014,0.5001,0.4991,0.4983,0.4969,0.495,0.4941,0.4933,0.4927,0.4928,0.4928,0.4928,0.4929,0.4913,0.4931,0.4931,0.4931,0.4931,0.4931,0,0.51,0.5091,0.5084,0.5072,0.5065,0.5054,0.5042,0.5038,0.5031,0.5019,0.5011,0.5,0.499,0.4973,0.4961,0.4958,0.4951,0.4955,0.4954,0.4952,0.4936,0.4936,0.496,0.496,0.496,0.496,0.496,0.496,0.5113,0.511,0.5101,0.5093,0.5083,0.5075,0.5069,0.506,0.505,0.5039,0.503,0.502,0.5005,0.4992,0.4981,0.4976,0.4972,0.4978,0.4971,0.4956,0.4953,0.4951,0.4951,0.4977,0.4977,0.4987,0.4987,0.4987]}]]